Regional Weather Roundup
Issued by NWS

Home | Current Version | Previous Version | Text Only | Print | Product List | Glossary On
Versions: 1 2 3 4 5 6 7 8 9 10 11 12 13 14 15 16 17 18 19 20 21 22 23 24 25 26 27 28 29 30 31 32 33 34 35 36 37 38 39 40 41 42 43 44 45 46 47 48 49 50
000
ASUS43 KMKX 212011
RWRWI

WISCONSIN REGIONAL WEATHER ROUNDUP
NATIONAL WEATHER SERVICE MILWAUKEE/SULLIVAN WI
300 PM CDT SUN SEP 21 2014

NOTE: "FAIR" INDICATES FEW OR NO CLOUDS BELOW 12,000 FEET WITH NO
SIGNIFICANT WEATHER AND/OR OBSTRUCTIONS TO VISIBILITY.

WIZ001-002-006>008-014>016-023>028-212100-
NORTHWEST WISCONSIN

CITY           SKY/WX    TMP DP  RH WIND       PRES   REMARKS
SUPERIOR ARPT  SUNNY     63  44  49 N5        30.11F
ASHLAND        SUNNY     58  44  60 N5        30.13S
HAYWARD        SUNNY     60  42  51 N9G16     30.11S
SIREN          MOSUNNY   63  44  49 N12G20    30.12S
RICE LAKE      MOSUNNY   62  43  50 N12G21    30.12R
LADYSMITH      SUNNY     59  44  57 N12G20    30.11S
EAU CLAIRE     MOSUNNY   63  44  50 N14G22    30.08R
MENOMONIE      PTCLDY    65  43  45 NW15G23   30.09S
NEW RICHMOND   PTSUNNY   63  44  49 N10       30.13S
OSCEOLA        MOSUNNY   63  46  52 N12       30.16R
$$

WIZ003>005-009-010-017-018-212100-
NORTH CENTRAL WISCONSIN

CITY           SKY/WX    TMP DP  RH WIND       PRES   REMARKS
WOODRUFF       PTSUNNY   52  41  64 N20       30.08R
RHINELANDER    MOSUNNY   53  39  59 NW10G21   30.06R
EAGLE RIVER    PTSUNNY   48  36  63 N14G25    30.06R
LAND O LAKES   CLOUDY    47  38  69 N12G22    30.08R
PHILLIPS       PTSUNNY   53  43  69 N10       30.08S
TOMAHAWK       MOSUNNY   55  41  58 NW12G18   30.07R
MEDFORD        PTSUNNY   56  43  62 N17G23    30.07R
MERRILL        MOSUNNY   57  42  57 N12G21    30.05R
$$

WIZ029-030-035-036-043>047-212100-
CENTRAL WISCONSIN

CITY           SKY/WX    TMP DP  RH WIND       PRES   REMARKS
WAUSAU         MOSUNNY   57  40  52 NW16G23   30.03R
MOSINEE        MOSUNNY   57  45  62 N15G21    30.05R
MARSHFIELD     MOSUNNY   61  43  51 N18       30.05R
STEVENS POINT  PTSUNNY   57  40  53 NW13G22   30.04R
WAUPACA        MOSUNNY   61  42  49 NW15G22   30.02R
WAUTOMA        MOSUNNY   61  43  51 N14G23    30.03R
WISC RAPIDS    PTSUNNY   63  43  48 N16       30.05R
CAMP DOUGLAS   PTSUNNY   64  46  52 NW12G24   30.04R
$$

WIZ011>013-019>022-031-037>040-048>050-212100-
NORTHEAST WISCONSIN

CITY           SKY/WX    TMP DP  RH WIND       PRES   REMARKS
ANTIGO         MOSUNNY   53  41  64 N16G25    30.03R
STURGEON BAY   PTSUNNY   55  43  62 N18       29.98R
GREEN BAY      PTSUNNY   58  45  62 NW14G22   29.99R
MANITOWOC      CLOUDY    55  47  74 N15G23    29.98R
APPLETON       PTSUNNY   57  39  51 N17G24    30.00R
CLINTONVILLE   MOSUNNY   57  37  47 N13G21    30.01R
OSHKOSH        MOSUNNY   58  42  55 N16G29    30.00R
$$

WIZ032>034-041-042-053>061-212100-
SOUTHWEST WISCONSIN

CITY           SKY/WX    TMP DP  RH WIND       PRES   REMARKS
LA CROSSE      MOSUNNY   68  45  43 N16       30.06R
SPARTA         MOSUNNY   64  42  43 NW13G22   30.06S
VIROQUA        FAIR      63  46  54 NW13G24   30.06R
BOSCOBEL       MOSUNNY   66  44  45 NW14      30.05R
PRAIRIE DU CHI PTSUNNY   66  46  47 NW12      30.06R
PLATTEVILLE    FAIR      65  49  56 NW16      30.04S
$$

WIZ056-057-062-063-064-067-068-212100-
SOUTH CENTRAL WISCONSIN

CITY           SKY/WX    TMP DP  RH WIND       PRES   REMARKS
BARABOO/DELLS  PTSUNNY   64  42  45 N12G18    30.03R
LONE ROCK      PTSUNNY   68  46  45 NW20      30.03R
WATERTOWN      MOSUNNY   62  44  52 N20G28    29.98S
MADISON        PTSUNNY   64  44  48 N18G26    30.00R
MIDDLETON      MOCLDY    65  45  47 NW13G21   30.02R
MONROE         SUNNY     64  52  63 NW17G24   30.00S
JANESVILLE     PTSUNNY   66  50  55 NW22G28   29.98R
$$

WIZ051-052-058>065-066-070>072-212100-
SOUTHEAST WISCONSIN

CITY           SKY/WX    TMP DP  RH WIND       PRES   REMARKS
MILWAUKEE      PTSUNNY   60  51  72 N12G24    29.96R
WAUKESHA       PTSUNNY   59  46  63 NW16G24   29.98R
MILWAUKEE/TIMM PTSUNNY   59  48  67 N17G25    29.97R
RACINE         PTSUNNY   61  51  70 N12       29.98R
BURLINGTON     PTSUNNY   62  51  65 N12G20    29.97R
KENOSHA        PTSUNNY   62  54  74 N8        29.96R
FOND DU LAC    PTSUNNY   58  43  57 N14       30.01R
SHEBOYGAN      CLOUDY    58  45  62 NW14G21   29.97R
WEST BEND      PTSUNNY   57  43  58 NW14G25   29.98R
JUNEAU         PTSUNNY   59  43  56 NW12G23   30.00R
$$

LSZ147-162-212100-
LAKE SUPERIOR

STATION/POSITION TIME  TEMP    WIND        PRES    WAVE
                       AIR SEA DIR/SP/G            HT/PER
                 (UTC) (F)     (DEG/KT/KT) (MB)    (FT/S)
W MID LAKE BUOY  1950   47 46  220/  6/  8 1019.3F   2/ 5
DEVILS ISLAND    2000   52     210/  5/  7 1019.8F
PORT WING        1900   55     350/  2/  4 1020.0S
SAXON HARBOR     1940   51      30/  7/  9 1020.7R
$$

LMZ867-665-643>646-212100-
LAKE MICHIGAN

STATION/POSITION TIME  TEMP    WIND        PRES    WAVE
                       AIR SEA DIR/SP/G            HT/PER
                 (UTC) (F)     (DEG/KT/KT) (MB)    (FT/S)
N MID LAKE BUOY  1950   49 58  330/ 27/ 33 1013.1R   7/ 6
NORTHPORT PIER   1907   51     340/ 27     1014.2R
KEWAUNEE LAKESHO 1900   55     340/  6/ 14 1013.3R
SHEBOYGAN LAKESH 2000   57 51  340/ 17/ 20 1015.2R
PORT WASHINGTON  1900   57     330/ 11/ 22 1014.9R
ATWATER BUOY     2000   57     360/ 14/ 17 1015.4R
MILWAUKEE LAKESH 1900   56     340/ 15/ 20   N/A
S MID LAKE BUOY  1950   58 62  330/ 23/ 29 1013.2R   9/ 7
KENOSHA   LAKESH 2000   57      20/ 17/ 21 1014.2R
$$

TC  - TEMPERATURE IN CELSIUS
VSB - VISIBILITY IN STATUTE MILES
WCI - WIND CHILL INDEX
HX  - HEAT INDEX




USA.gov is the U.S. government's official web portal to all federal, state and local government web resources and services.